Location: Castle
(40.7167°S, 175.9500°E)
Time: 17:46:13
(UTC+00:00)

OAO 3 Rocket - Pass Details

Date: 04 August 2024
Orbit: 620 x 670 km, 35.0° (Epoch: 17 September)

Event Time Altitude Azimuth Distance (km) Brightness Sun altitude
Exits shadow 17:38:15 29° 310° (NW) 1,198 4.1 -19.2°
Maximum altitude 17:39:53 38° 351° (N) 1,002 4.1 -18.9°
Drops below altitude 10° 17:44:25 10° 59° (ENE) 2,090 6.8 -18.0°
Sets 17:46:55 0° 66° (ENE) 3,007 8.0 -17.6°
